AirNav   Everest Fuels
 
 868 users online  

KNGU Norfolk Naval Station (Chambers Field)
Norfolk, Virginia, USA

GOING TO NORFOLK?


FAA INFORMATION EFFECTIVE 21 MAY 2020

Location

FAA Identifier: NGU
Lat/Long: 36-56-14.8838N 076-17-21.4006W
36-56.248063N 076-17.356677W
36.9374677,-76.2892779
(estimated)
Elevation: 14.8 ft. / 4.5 m (surveyed)
Variation: 10W (1990)
Time zone: UTC -4 (UTC -5 during Standard Time)
Zip code: 23503

Airport Operations

Airport use: Private use. Permission required prior to landing
Activation date: 04/1943
Control tower: yes
ARTCC: WASHINGTON CENTER
FSS: LEESBURG FLIGHT SERVICE STATION
NOTAMs facility: NGU (NOTAM-D service available)
Attendance: CONTINUOUS
CLSD 0400Z FOURTH THU NOV - 1200Z FOURTH FRI NOV, CLSD 1900Z 24 DEC - 1200Z 26 DEC, CLSD 1900Z 31 DEC - 1200Z 2 JAN.
Segmented circle: no
Lights: AVBL ONLY DURING HRS OF OPERATION.
Beacon: white-white-green (lighted military airport)
Operates sunset to sunrise.

Airport Communications

ATIS: 118.425 342.0
CHAMBERS GROUND: 121.8 298.95 ;NAVY NORFOLK HELIN 370.85
CHAMBERS TOWER: 124.3 126.375 ;NAVY NORFOLK HELIN 290.5 ;NAVY NORFOLK HELIN 379.15
NORFOLK APPROACH: 118.9 ;010-310
CLEARANCE DELIVERY: 120.7 339.8
AMC/ATOC: 130.65 349.5
BASE OPS: 134.1 268.8
EMERG: 121.5 243.0
PMSV METRO: 271.6
RADAR: 119.2 134.1 263.6 302.0 309.2 346.8
WX ASOS at ORF (5 nm SE): PHONE 757-460-9348
WX AWOS-3PT at PVG (12 nm SW): 118.375 (757-465-2175)
WX ASOS at NTU (14 nm SE): PHONE DSN 433-3619 or 757-433-3619
WX ASOS at PHF (15 nm NW): PHONE 757-874-3682
WX AWOS-3 at CPK (16 nm S): 123.675 (757-204-4290)
  • NOTIFY CHAMBERS OPNS ON FREQ 268.8 ON ALL VIP FLIGHTS 15 MIN PRIOR TO ARRIVAL.
  • ALL RADAR FREQUENCIES ARE ON REQUEST.

Nearby radio navigation aids

VOR radial/distance  VOR name  Freq  Var
ORFr310/5.1NORFOLK VORTAC116.9007W
CCVr220/28.3CAPE CHARLES VORTAC112.2010W
HCMr154/36.7HARCUM VORTAC108.8007W
FKNr078/37.2FRANKLIN VORTAC110.6009W

 
NDB name  Hdg/Dist  Freq  Var  ID
INGLE352/6.132909WOR --- .-.
WAKEFIELD106/34.227411WAKQ .- -.- --.-

Airport Services

Bottled oxygen: NONE
Bulk oxygen: HIGH/LOW

Runway Information

Runway 10/28

Dimensions: 8370 x 200 ft. / 2551 x 61 m
Surface: asphalt/grooved
Weight bearing capacity: 
PCN 56 /R/B/W/T
Runway edge lights: high intensity
RUNWAY 10  RUNWAY 28
Latitude: 36-56.247967N36-56.248162N
Longitude: 076-18.215905W076-16.497447W
Elevation: 13.2 ft.12.5 ft.
Traffic pattern: leftright
Runway heading: 100 magnetic, 090 true280 magnetic, 270 true
Displaced threshold: 299 ft.995 ft.
Declared distances: TORA:8370 LDA:8071TORA:8370 LDA:7375
Visual slope indicator: 4-light PAPI on right (3.00 degrees glide path)4-light PAPI on right (3.00 degrees glide path)
Approach lights: ALSF2: standard 2,400 foot high intensity approach lighting system with centerline sequenced flashers (category II or III)
OLS RYS 10 & 28.
SSALS: simplified short approach lighting system
Runway end identifier lights: yesyes
Centerline lights: yesyes
Touchdown point: yes, lightedyes, lighted
Instrument approach: ILS/DME

Airport Ownership and Management from official FAA records

Ownership: U.S. Navy
Owner: U.S. NAVY
OCEANOGRAPHIC OFC-CODE 3142
WASHINGTON, DC 20373
Manager: COMMANDING OFFICER
NAVAL AIR STATION
NORFOLK, VA 23511

Additional Remarks

E60-28 HOOK E28 (B) (1062').
E60-10 HOOK E28(B) (1500').
AOE.
CAUTION: EXTV FISH SPOTTER ACFT ACT (SENG GENERAL AVIATION ACFT) UPWARDS FR 1500 FT OVER CHESAPEAKE BAY AND ADJ COASTAL WATERS. EXTV VFR TFC OPR W OF CHAMBERS CLASS D AND NORFOLK CLASS C AIRSPACE. BIRD HAZ.
TFC PAT: RGT TFC RWY 28. BASIC F/W/VFR MIN 1000' AND 3 NM. HELIPORT RWY 09/27.
NS ABTMT: NO PRACTICE APCH 0400-1200Z++ MON-SAT; 0400-1800Z++ SUN. OT BY NOTAM. NO COPTER OVFT WILLOUGHBY SPIT EXC VIA PT XRAY (CHAMBERS TACAN R-042/1.5 DME) OR PT YANKEE (CHAMBERS TACAN R-009/1.8 DME) AT 500'.
CSTMS/AG/IMG: CSTMS AVBL WITH 2 HR PN. AG AVBL 1300-2400Z++ MON-FRI. IMG AVBL 1300-2100Z++ MON-FRI. AG/IMG AVBL OT ON OVERTIME BASIS ONLY, PRIOR ARNG RQR.
MISC: RY 10/28 GROOVED.
CAUTION: ARRIVING/DEPARTING TCAS EQUIPPED ACFT SHOULD EXPECT NUMEROUS TCAS ALERTS FROM SHIP TRANSPONDER HARBORED OR TRANSITING INTO/OUT OF THE CHESAPEAKE AND COASTAL WATERS.
ARRIVING/DEPARTING TCAS EQUIPED ACFT SHOULD EXPECT NUMEROUS TCAS ALERTS FROM SHIP TRANSPONDER OR TRANSMITTING INTO/OUT OF THE CHESAPEAKE AND COASTAL WATERS.
CAUTION - DO NOT MISTAKE NORFOLK INTL 5 NM SE FOR CHAMBERS FIELD, WHILE INBD ON TACAN/RNAV RY 28 APCHS. CHAMBERS FIELD HAS A SINGLE RY; NORFOLK INTL HAS INTERSECTING RYS.
RSTD - PPR FOR NON CHAMBERS FIELD BASED ACFT. DSN 262-3419/3429 C757-322-3419/3429.
AMC/ATOC DSN 564-4735/3922, C757-444-4735/3922. ACFT UTILIZING AMC TRML CTC ATOC/AMC TRML 15 MIN PRIOR ARR WITH LOAD RPT. ACFT OVERSEAS CTC AMC/ATOC VIA FONE PATCH 2 HR PRIOR ARR FOR CSTM. ALL OTHER ACFT, CTC BASE OPS 15 MIN PRIR ARR.
MISC- FLT PLANS FOR NS NORFOLK, CHAMBERS FLD, AND NAS OCEANA SHOULD BE FAXED TO DSN 565-9680, C757-445-9680, OR EMAILED TO KNGU.FLTPLNG.FCT@NAVY.MIL. TO CFM RECEIPT OF FLT PLANS CALL NS NORFOLK, CHAMBERS FLD FLT PLANNING SUPERVISOR AT DSN 262-3419/3429, C757-322-3419/3429.
A-GEAR: AVOID CNTRLINE LGT RWY 10/28 DUR CABLE ENGAGEMENT TO PREVENT TAILHOOK SKIP. DIST RWY 28 MEASURED FR DISPL THLD. E-28(B) IN RAISED POSN AT DEP END OF RWY NMLLY. SHORTFLD GEAR AVBL WITH 20 MIN PN.
JASU:(NC-10C) (NC-8A/A1) (NCPP-105 CTC AIR OPS DUTY OFFICER TO ENSURE AVBL.)
FUEL: NO TRAN COPTER HOT PIT WO PRIOR COORD WITH HOST SQUADRON. J5.
FLUID: ADI SP PRESAIR LHOX LOX.
OIL: UNAVBLE.
TRAN ALERT: LTD TRAN MAINT AVBL WKD ONLY 1200-2000Z++. TRAN MAINT UNAVBL OT. 2 HR PN RQR FOR LOX. LAVATORY SVC UNAVBL FOR C-130 ACFT. POTABLE WATER UNAVBL. NO TRAN WORK/MSN PLANNING/BRIEFING SPACES OR COMSEC STOR FOR DETS.
RSTD: TWY B CLSD S OF TWY F AND TWY D CLSD E OF TWY S UFN.

Instrument Procedures

NOTE: All procedures below are presented as PDF files. If you need a reader for these files, you should download the free Adobe Reader.

NOT FOR NAVIGATION. Please procure official charts for flight.
FAA instrument procedures published for use from 21 May 2020 at 0901Z to 18 June 2020 at 0900Z.

 
STARs - Standard Terminal Arrivals
DRONE TWO   2 pages: [1] [2] (307KB)
TERKS TWO   download (191KB)
 
IAPs - Instrument Approach Procedures
ILS OR LOC/DME RWY 10   download (207KB)
RNAV (GPS) RWY 10   download (164KB)
RNAV (GPS) RWY 28   download (163KB)
HI-TACAN RWY 10   download (153KB)
HI-TACAN RWY 28   download (160KB)
TACAN RWY 10   download (200KB)
TACAN RWY 28   download (151KB)
Radar Approach Procedures available   download (158KB)
 
Departure Procedures
CHAMBERS ONE (VECTOR)   2 pages: [1] [2] (244KB)
NOTE: Special Take-Off Minimums/Departure Procedures apply   download (395KB)

Other nearby airports with instrument procedures:

KORF - Norfolk International Airport (5 nm SE)
KLFI - Langley Air Force Base (9 nm N)
KPVG - Hampton Roads Executive Airport (12 nm SW)
KNTU - Oceana Naval Air Station (Apollo Soucek Field) (14 nm SE)
KPHF - Newport News/Williamsburg International Airport (15 nm NW)
KCPK - Chesapeake Regional Airport (16 nm S)
KFAF - Felker Army Airfield (19 nm NW)
 
Loc | Ops | Rwys | IFR | FBO | Links
Com | Nav | Svcs | Stats | Notes
Area around KNGU (Norfolk Naval Station (Chambers Field))
 
Road maps at: MapQuest Bing Google
 
Aerial photo
WARNING: Photo may not be current or correct
Aerial photo of KNGU (Norfolk Naval Station (Chambers Field))
Photo by David Newcomer
Photo taken 10-Sep-2019
looking southeast from 5,000'.

Do you have a better or more recent aerial photo of Norfolk Naval Station (Chambers Field) that you would like to share? If so, please send us your photo.

 
Sectional chart

 
Airport diagram
Diagram of KNGU (Norfolk Naval Station (Chambers Field))
Download PDF
of official airport diagram from the FAA

 
Airport distance calculator
Flying to Norfolk Naval Station (Chambers Field)? Find the distance to fly.

From to KNGU

Sunrise and sunset
Times for 03-Jun-2020
 Local
(UTC-4)
 Zulu
(UTC)
Morning civil twilight05:1709:17
Sunrise05:4709:47
Sunset20:2000:20
Evening civil twilight20:5000:50

Current date and time
Zulu (UTC)  04-Jun-2020 01:55:58
Local (UTC-4)  03-Jun-2020 21:55:58
 
METAR
KNGU 
2nm SE 
040059Z 22007KT 10SM SCT180 SCT250 28/20 A2981 RMK AO2 SLP095 T02830200 $
KORF 
5nm SE 
040051Z 24012KT 10SM CLR 31/19 A2979 RMK AO2 SLP088 T03110194
KLFI 
9nm NW 
040056Z AUTO 22011KT 10SM BKN150 OVC180 29/21 A2980 RMK AO2 SLP097 T02920214 $
KPVG 
12nm SW 
040056Z AUTO 22004KT 10SM CLR A2982 RMK AO2 SLPNO FZRANO PNO $
KNTU 
15nm SE 
040056Z 22008KT 10SM FEW150 SCT300 29/19 A2979 RMK AO2 SLP091 T02890189
KPHF 
15nm NW 
040054Z AUTO 23010KT 10SM CLR 30/20 A2979 RMK AO2 SLP087 T03000200
KCPK 
16nm S 
040135Z AUTO 21004KT 10SM CLR 26/19 A2982 RMK AO2 T02610193
KNFE 
16nm SE 
040056Z AUTO VRB03KT 10SM CLR 28/19 A2981 RMK AO2 SLP096 T02830189
KFAF 
19nm NW 
040056Z AUTO 20005KT 10SM BKN150 29/21 A2977 RMK AO2 SLP084 T02860213 $
TAF
KNGU 
2nm SE 
0323/0423 24011G20KT 9999 FEW140 SCT250 QNH2975INS FM040300 23009KT 9999 FEW050 SCT120 SCT280 QNH2980INS FM041800 21011G20KT 9999 FEW040 SCT070 BKN250 QNH2984INS T24/0409Z T33/0419Z FN00062
KORF 
5nm SE 
031723Z 0318/0418 24013G20KT P6SM SCT060 FM040000 23010KT P6SM SCT200 FM041600 23011KT P6SM SCT050
KLFI 
9nm NW 
032300Z 0323/0423 24012G18KT 9999 BKN150 QNH2975INS BECMG 0407/0408 25012KT 9999 SCT200 QNH2980INS BECMG 0417/0418 22012KT 9999 BKN040 QNH2990INS TEMPO 0420/0423 24015G25KT 3200 TSRA OVC040CB TX26/0421Z TN22/0409Z LAST NO AMDS AFTR 0323 NEXT 0409
KNTU 
15nm SE 
0323/0423 23012G20KT 9999 SCT300 QNH2974INS FM041600 22012KT 9999 BKN040 BKN300 QNH2985INS TEMPO 0420/0423 VRB15G25KT 3200 TSRA OVC040CB T22/0410Z T32/0419Z FN20051
KPHF 
15nm NW 
031723Z 0318/0418 24012G20KT P6SM SCT060 FM040000 24009KT P6SM SCT200 FM041600 23010KT P6SM SCT050
KFAF 
19nm NW 
031000Z 0310/0416 24009KT 9999 SCT240 QNH2986INS BECMG 0314/0315 24015G25KT 9999 FEW050 FEW130 QNH2974INS BECMG 0321/0322 22009KT 9999 FEW045 SCT140 510023 QNH2980INS TEMPO 0415/0416 26015G20KT 4800 -TSRA OVC030CB TX31/0319Z TN20/0310Z
NOTAMs
Click for the latest NOTAMs
NOTAMs are issued by the DoD/FAA and will open in a separate window not controlled by AirNav.

 

 
 

Would you like to see your business listed on this page?

 If your business provides an interesting product or service to pilots, flight crews, aircraft, or users of the Norfolk Naval Station (Chambers Field), you should consider listing it here.  To start the listing process, click on the button below
 
Add a business
 

Other Pages about Norfolk Naval Station (Chambers Field)

Update a link
 
Copyright © AirNav, LLC. All rights reserved. Privacy Policy  Contact